Вернуться в каталог

NOAA 16 DEB

АктивенSSO
NORAD 42363·DEBRIS·🇺🇸 United States

Запущен Sep 21, 2000 с Vandenberg Space Force Base

Loading…

Ближайшие Пролёты (ближайшие 24 часа)

TLE

СвежийSource: Space-Track

Эпоха: Sep 12, 2026, 05:44 UTC

1 42363U 00055RF  26255.23906092  .00002065  00000-0  10703-2 0  9995
2 42363  98.8005 255.9473 0062385 139.5151 221.0688 14.14933768540736

Отслеживайте NOAA 16 DEB в реальном времени с AllMySat

Download on the App Store